Location: Kumla
(59.1265°N, 15.1401°E)
Time: 07:11:52
(UTC+01:00)

Vanguard 1 Rocket - Pass Details

Date: 12 December 2023
Orbit: 653 x 4219 km, 34.3° (Epoch: 04 March)

Event Time Altitude Azimuth Distance (km) Brightness Sun altitude
Rises 04:36:22 0° 236° (WSW) 8,441 - -29.4°
Reaches altitude 10° 04:43:42 10° 228° (SW) 7,231 - -28.5°
Exits shadow 04:44:54 12° 226° (SW) 7,031 11.5 -28.3°
Maximum altitude 05:01:16 29° 180° (S) 4,710 10.9 -26.2°
Drops below altitude 10° 05:13:10 10° 128° (SE) 4,874 11.8 -24.7°
Sets 05:16:52 0° 117° (ESE) 5,419 12.5 -24.2°
